Time,TemperatureF,DewpointF,PressureIn,WindDirection,WindDirectionDegrees,WindSpeedMPH,WindSpeedGustMPH,Humidity,HourlyPrecipIn,Conditions,Clouds,dailyrainin,SoftwareType,DateUTC
2013-11-22 00:00:00,71.0,65.6,30.08,NNE,23,0.0,-999.0,83,0.00,,,0.01,Wunderground v.1.15,2013-11-22 10:00:00,
2013-11-22 00:05:00,71.0,65.6,30.08,NNE,23,0.0,-999.0,83,0.00,,,0.01,Wunderground v.1.15,2013-11-22 10:05:00,
2013-11-22 00:10:00,71.0,65.6,30.08,NNE,23,0.0,-999.0,83,0.00,,,0.01,Wunderground v.1.15,2013-11-22 10:10:00,
2013-11-22 00:15:00,71.0,65.6,30.08,NNE,23,0.0,-999.0,83,0.00,,,0.01,Wunderground v.1.15,2013-11-22 10:15:00,
2013-11-22 00:20:00,71.0,65.6,30.08,NNE,23,0.0,-999.0,83,0.00,,,0.01,Wunderground v.1.15,2013-11-22 10:20:00,
2013-11-22 00:25:00,71.0,65.6,30.08,NNE,23,0.0,-999.0,83,0.00,,,0.01,Wunderground v.1.15,2013-11-22 10:25:00,
2013-11-22 00:30:00,71.0,65.6,30.08,NNE,23,0.0,-999.0,83,0.00,,,0.01,Wunderground v.1.15,2013-11-22 10:30:00,
2013-11-22 00:35:00,71.0,65.6,30.08,NNE,23,0.0,-999.0,83,0.00,,,0.01,Wunderground v.1.15,2013-11-22 10:35:00,
2013-11-22 00:40:00,71.0,65.6,30.08,NNE,23,0.0,-999.0,83,0.00,,,0.01,Wunderground v.1.15,2013-11-22 10:40:00,
2013-11-22 00:45:00,70.3,64.9,30.07,NNE,23,0.0,-999.0,83,0.00,,,0.01,Wunderground v.1.15,2013-11-22 10:45:00,
2013-11-22 00:50:00,70.3,64.9,30.07,NNE,23,0.0,-999.0,83,0.00,,,0.01,Wunderground v.1.15,2013-11-22 10:50:00,
2013-11-22 00:55:00,70.3,64.9,30.07,NNE,23,0.0,-999.0,83,0.00,,,0.01,Wunderground v.1.15,2013-11-22 10:55:00,
2013-11-22 01:00:00,70.3,64.9,30.07,NNE,23,0.0,-999.0,83,0.00,,,0.01,Wunderground v.1.15,2013-11-22 11:00:00,
2013-11-22 01:05:00,70.3,64.9,30.07,NNE,23,0.0,-999.0,83,0.00,,,0.01,Wunderground v.1.15,2013-11-22 11:05:00,
2013-11-22 01:10:00,70.3,64.9,30.07,NNE,23,0.0,-999.0,83,0.00,,,0.01,Wunderground v.1.15,2013-11-22 11:10:00,
2013-11-22 01:15:00,70.1,65.0,30.07,NNE,23,0.0,-999.0,84,0.01,,,0.01,Wunderground v.1.15,2013-11-22 11:15:00,
2013-11-22 01:20:00,70.1,65.0,30.07,NNE,23,0.0,-999.0,84,0.01,,,0.01,Wunderground v.1.15,2013-11-22 11:20:00,
2013-11-22 01:25:00,70.1,65.0,30.07,NNE,23,0.0,-999.0,84,0.01,,,0.01,Wunderground v.1.15,2013-11-22 11:25:00,
2013-11-22 01:30:00,70.1,65.0,30.07,NNE,23,0.0,-999.0,84,0.01,,,0.01,Wunderground v.1.15,2013-11-22 11:30:00,
2013-11-22 01:35:00,70.1,65.0,30.07,NNE,23,0.0,-999.0,84,0.01,,,0.01,Wunderground v.1.15,2013-11-22 11:35:00,
2013-11-22 01:40:00,70.1,65.0,30.07,NNE,23,0.0,-999.0,84,0.01,,,0.01,Wunderground v.1.15,2013-11-22 11:40:00,
2013-11-22 01:45:00,70.0,65.3,30.06,NNE,23,0.0,-999.0,85,0.01,,,0.01,Wunderground v.1.15,2013-11-22 11:45:00,
2013-11-22 01:50:00,70.0,65.3,30.06,NNE,23,0.0,-999.0,85,0.01,,,0.01,Wunderground v.1.15,2013-11-22 11:50:00,
2013-11-22 01:55:00,70.0,65.3,30.06,NNE,23,0.0,-999.0,85,0.01,,,0.01,Wunderground v.1.15,2013-11-22 11:55:00,
2013-11-22 02:00:00,70.0,65.3,30.06,NNE,23,0.0,-999.0,85,0.01,,,0.01,Wunderground v.1.15,2013-11-22 12:00:00,
2013-11-22 02:05:00,70.0,65.3,30.06,NNE,23,0.0,-999.0,85,0.01,,,0.01,Wunderground v.1.15,2013-11-22 12:05:00,
2013-11-22 02:10:00,70.0,65.3,30.06,NNE,23,0.0,-999.0,85,0.01,,,0.01,Wunderground v.1.15,2013-11-22 12:10:00,
2013-11-22 02:15:00,69.8,64.7,30.05,NNE,23,0.0,-999.0,84,0.00,,,0.01,Wunderground v.1.15,2013-11-22 12:15:00,
2013-11-22 02:20:00,69.8,64.7,30.05,NNE,23,0.0,-999.0,84,0.00,,,0.01,Wunderground v.1.15,2013-11-22 12:20:00,
2013-11-22 02:25:00,69.8,64.7,30.05,NNE,23,0.0,-999.0,84,0.00,,,0.01,Wunderground v.1.15,2013-11-22 12:25:00,
2013-11-22 02:30:00,69.8,64.7,30.05,NNE,23,0.0,-999.0,84,0.00,,,0.01,Wunderground v.1.15,2013-11-22 12:30:00,
2013-11-22 02:35:00,69.8,64.7,30.05,NNE,23,0.0,-999.0,84,0.00,,,0.01,Wunderground v.1.15,2013-11-22 12:35:00,
2013-11-22 02:40:00,69.8,64.7,30.05,NNE,23,0.0,-999.0,84,0.00,,,0.01,Wunderground v.1.15,2013-11-22 12:40:00,
2013-11-22 02:45:00,69.6,63.5,30.04,NNE,23,0.0,-999.0,81,0.00,,,0.01,Wunderground v.1.15,2013-11-22 12:45:00,
2013-11-22 02:50:00,69.6,63.5,30.04,NNE,23,0.0,-999.0,81,0.00,,,0.01,Wunderground v.1.15,2013-11-22 12:50:00,
2013-11-22 02:55:00,69.6,63.5,30.04,NNE,23,0.0,-999.0,81,0.00,,,0.01,Wunderground v.1.15,2013-11-22 12:55:00,
2013-11-22 03:00:00,69.6,63.5,30.04,NNE,23,0.0,-999.0,81,0.00,,,0.01,Wunderground v.1.15,2013-11-22 13:00:00,
2013-11-22 03:05:00,69.6,63.5,30.04,NNE,23,0.0,-999.0,81,0.00,,,0.01,Wunderground v.1.15,2013-11-22 13:05:00,
2013-11-22 03:10:00,69.6,63.5,30.04,NNE,23,0.0,-999.0,81,0.00,,,0.01,Wunderground v.1.15,2013-11-22 13:10:00,
2013-11-22 03:15:00,69.4,62.6,30.04,NNE,23,0.0,-999.0,79,0.00,,,0.01,Wunderground v.1.15,2013-11-22 13:15:00,
2013-11-22 03:20:00,69.4,62.6,30.04,NNE,23,0.0,-999.0,79,0.00,,,0.01,Wunderground v.1.15,2013-11-22 13:20:00,
2013-11-22 03:25:00,69.4,62.6,30.04,NNE,23,0.0,-999.0,79,0.00,,,0.01,Wunderground v.1.15,2013-11-22 13:25:00,
2013-11-22 03:30:00,69.4,62.6,30.04,NNE,23,0.0,-999.0,79,0.00,,,0.01,Wunderground v.1.15,2013-11-22 13:30:00,
2013-11-22 03:35:00,69.4,62.6,30.04,NNE,23,0.0,-999.0,79,0.00,,,0.01,Wunderground v.1.15,2013-11-22 13:35:00,
2013-11-22 03:40:00,69.4,62.6,30.04,NNE,23,0.0,-999.0,79,0.00,,,0.01,Wunderground v.1.15,2013-11-22 13:40:00,
2013-11-22 03:45:00,69.1,62.7,30.05,NNE,23,0.0,-999.0,80,0.00,,,0.01,Wunderground v.1.15,2013-11-22 13:45:00,
2013-11-22 03:50:00,69.1,62.7,30.05,NNE,23,0.0,-999.0,80,0.00,,,0.01,Wunderground v.1.15,2013-11-22 13:50:00,
2013-11-22 03:55:00,69.1,62.7,30.05,NNE,23,0.0,-999.0,80,0.00,,,0.01,Wunderground v.1.15,2013-11-22 13:55:00,
2013-11-22 04:00:00,69.1,62.7,30.05,NNE,23,0.0,-999.0,80,0.00,,,0.01,Wunderground v.1.15,2013-11-22 14:00:00,
2013-11-22 04:05:00,69.1,62.7,30.05,NNE,23,0.0,-999.0,80,0.00,,,0.01,Wunderground v.1.15,2013-11-22 14:05:00,
2013-11-22 04:10:00,69.1,62.7,30.05,NNE,23,0.0,-999.0,80,0.00,,,0.01,Wunderground v.1.15,2013-11-22 14:10:00,
2013-11-22 04:15:00,69.0,63.3,30.05,NNE,23,0.0,-999.0,82,0.00,,,0.01,Wunderground v.1.15,2013-11-22 14:15:00,
2013-11-22 04:20:00,69.0,63.3,30.05,NNE,23,0.0,-999.0,82,0.00,,,0.01,Wunderground v.1.15,2013-11-22 14:20:00,
2013-11-22 04:25:00,69.0,63.3,30.05,NNE,23,0.0,-999.0,82,0.00,,,0.01,Wunderground v.1.15,2013-11-22 14:25:00,
2013-11-22 04:30:00,69.0,63.3,30.05,NNE,23,0.0,-999.0,82,0.00,,,0.01,Wunderground v.1.15,2013-11-22 14:30:00,
2013-11-22 04:35:00,69.0,63.3,30.05,NNE,23,0.0,-999.0,82,0.00,,,0.01,Wunderground v.1.15,2013-11-22 14:35:00,
2013-11-22 04:40:00,69.0,63.3,30.05,NNE,23,0.0,-999.0,82,0.00,,,0.01,Wunderground v.1.15,2013-11-22 14:40:00,
2013-11-22 04:45:00,69.2,63.5,30.05,NNE,23,2.0,-999.0,82,0.00,,,0.01,Wunderground v.1.15,2013-11-22 14:45:00,
2013-11-22 04:50:00,69.2,63.5,30.05,NNE,23,2.0,-999.0,82,0.00,,,0.01,Wunderground v.1.15,2013-11-22 14:50:00,
2013-11-22 04:55:00,69.2,63.5,30.05,NNE,23,2.0,-999.0,82,0.00,,,0.01,Wunderground v.1.15,2013-11-22 14:55:00,
2013-11-22 05:00:00,69.2,63.5,30.05,NNE,23,2.0,-999.0,82,0.00,,,0.01,Wunderground v.1.15,2013-11-22 15:00:00,
2013-11-22 05:05:00,69.2,63.5,30.05,NNE,23,2.0,-999.0,82,0.00,,,0.01,Wunderground v.1.15,2013-11-22 15:05:00,
2013-11-22 05:10:00,69.2,63.5,30.05,NNE,23,2.0,-999.0,82,0.00,,,0.01,Wunderground v.1.15,2013-11-22 15:10:00,
2013-11-22 05:15:00,69.5,64.1,30.06,NNE,23,1.0,-999.0,83,0.00,,,0.01,Wunderground v.1.15,2013-11-22 15:15:00,
2013-11-22 05:20:00,69.5,64.1,30.06,NNE,23,1.0,-999.0,83,0.00,,,0.01,Wunderground v.1.15,2013-11-22 15:20:00,
2013-11-22 05:25:00,69.5,64.1,30.06,NNE,23,1.0,-999.0,83,0.00,,,0.01,Wunderground v.1.15,2013-11-22 15:25:00,
2013-11-22 05:30:00,69.5,64.1,30.06,NNE,23,1.0,-999.0,83,0.00,,,0.01,Wunderground v.1.15,2013-11-22 15:30:00,
2013-11-22 05:35:00,69.5,64.1,30.06,NNE,23,1.0,-999.0,83,0.00,,,0.01,Wunderground v.1.15,2013-11-22 15:35:00,
2013-11-22 05:40:00,69.5,64.1,30.06,NNE,23,1.0,-999.0,83,0.00,,,0.01,Wunderground v.1.15,2013-11-22 15:40:00,
2013-11-22 05:45:00,69.4,65.0,30.07,NNE,23,1.0,-999.0,86,0.00,,,0.01,Wunderground v.1.15,2013-11-22 15:45:00,
2013-11-22 05:50:00,69.4,65.0,30.07,NNE,23,1.0,-999.0,86,0.00,,,0.01,Wunderground v.1.15,2013-11-22 15:50:00,
2013-11-22 05:55:00,69.4,65.0,30.07,NNE,23,1.0,-999.0,86,0.00,,,0.01,Wunderground v.1.15,2013-11-22 15:55:00,
2013-11-22 06:00:00,69.4,65.0,30.07,NNE,23,1.0,-999.0,86,0.00,,,0.01,Wunderground v.1.15,2013-11-22 16:00:00,
2013-11-22 06:05:00,69.4,65.0,30.07,NNE,23,1.0,-999.0,86,0.00,,,0.01,Wunderground v.1.15,2013-11-22 16:05:00,
2013-11-22 06:10:00,69.4,65.0,30.07,NNE,23,1.0,-999.0,86,0.00,,,0.01,Wunderground v.1.15,2013-11-22 16:10:00,
2013-11-22 06:15:00,69.5,64.5,30.07,NNE,23,1.0,-999.0,84,0.00,,,0.01,Wunderground v.1.15,2013-11-22 16:15:00,
2013-11-22 06:20:00,69.5,64.5,30.07,NNE,23,1.0,-999.0,84,0.00,,,0.01,Wunderground v.1.15,2013-11-22 16:20:00,
2013-11-22 06:25:00,69.5,64.5,30.07,NNE,23,1.0,-999.0,84,0.00,,,0.01,Wunderground v.1.15,2013-11-22 16:25:00,
2013-11-22 06:30:00,69.5,64.5,30.07,NNE,23,1.0,-999.0,84,0.00,,,0.01,Wunderground v.1.15,2013-11-22 16:30:00,
2013-11-22 06:35:00,69.5,64.5,30.07,NNE,23,1.0,-999.0,84,0.00,,,0.01,Wunderground v.1.15,2013-11-22 16:35:00,
2013-11-22 06:40:00,69.5,64.5,30.07,NNE,23,1.0,-999.0,84,0.00,,,0.01,Wunderground v.1.15,2013-11-22 16:40:00,
2013-11-22 06:45:00,69.6,65.6,30.08,NNE,23,1.0,-999.0,87,0.00,,,0.01,Wunderground v.1.15,2013-11-22 16:45:00,
2013-11-22 06:50:00,69.6,65.6,30.08,NNE,23,1.0,-999.0,87,0.00,,,0.01,Wunderground v.1.15,2013-11-22 16:50:00,
2013-11-22 06:55:00,69.6,65.6,30.08,NNE,23,1.0,-999.0,87,0.00,,,0.01,Wunderground v.1.15,2013-11-22 16:55:00,
2013-11-22 07:00:00,69.6,65.6,30.08,NNE,23,1.0,-999.0,87,0.00,,,0.01,Wunderground v.1.15,2013-11-22 17:00:00,
2013-11-22 07:05:00,69.6,65.6,30.08,NNE,23,1.0,-999.0,87,0.00,,,0.01,Wunderground v.1.15,2013-11-22 17:05:00,
2013-11-22 07:10:00,69.6,65.6,30.08,NNE,23,1.0,-999.0,87,0.00,,,0.01,Wunderground v.1.15,2013-11-22 17:10:00,
2013-11-22 07:15:00,70.3,66.2,30.09,NNE,23,0.0,-999.0,87,0.00,,,0.01,Wunderground v.1.15,2013-11-22 17:15:00,
2013-11-22 07:20:00,70.3,66.2,30.09,NNE,23,0.0,-999.0,87,0.00,,,0.01,Wunderground v.1.15,2013-11-22 17:20:00,
2013-11-22 07:25:00,70.3,66.2,30.09,NNE,23,0.0,-999.0,87,0.00,,,0.01,Wunderground v.1.15,2013-11-22 17:25:00,
2013-11-22 07:30:00,70.3,66.2,30.09,NNE,23,0.0,-999.0,87,0.00,,,0.01,Wunderground v.1.15,2013-11-22 17:30:00,
2013-11-22 07:35:00,70.3,66.2,30.09,NNE,23,0.0,-999.0,87,0.00,,,0.01,Wunderground v.1.15,2013-11-22 17:35:00,
2013-11-22 07:40:00,70.3,66.2,30.09,NNE,23,0.0,-999.0,87,0.00,,,0.01,Wunderground v.1.15,2013-11-22 17:40:00,
2013-11-22 07:45:00,71.6,67.2,30.10,NNE,23,1.0,-999.0,86,0.00,,,0.01,Wunderground v.1.15,2013-11-22 17:45:00,
2013-11-22 07:50:00,71.6,67.2,30.10,NNE,23,1.0,-999.0,86,0.00,,,0.01,Wunderground v.1.15,2013-11-22 17:50:00,
2013-11-22 07:55:00,71.6,67.2,30.10,NNE,23,1.0,-999.0,86,0.00,,,0.01,Wunderground v.1.15,2013-11-22 17:55:00,
2013-11-22 08:00:00,71.6,67.2,30.10,NNE,23,1.0,-999.0,86,0.00,,,0.01,Wunderground v.1.15,2013-11-22 18:00:00,
2013-11-22 08:05:00,71.6,67.2,30.10,NNE,23,1.0,-999.0,86,0.00,,,0.01,Wunderground v.1.15,2013-11-22 18:05:00,
2013-11-22 08:10:00,71.6,67.2,30.10,NNE,23,1.0,-999.0,86,0.00,,,0.01,Wunderground v.1.15,2013-11-22 18:10:00,
2013-11-22 08:15:00,74.8,68.9,30.11,NNE,23,0.0,-999.0,82,0.00,,,0.01,Wunderground v.1.15,2013-11-22 18:15:00,
2013-11-22 08:20:00,74.8,68.9,30.11,NNE,23,0.0,-999.0,82,0.00,,,0.01,Wunderground v.1.15,2013-11-22 18:20:00,
2013-11-22 08:25:00,74.8,68.9,30.11,NNE,23,0.0,-999.0,82,0.00,,,0.01,Wunderground v.1.15,2013-11-22 18:25:00,
2013-11-22 08:30:00,74.8,68.9,30.11,NNE,23,0.0,-999.0,82,0.00,,,0.01,Wunderground v.1.15,2013-11-22 18:30:00,
2013-11-22 08:35:00,74.8,68.9,30.11,NNE,23,0.0,-999.0,82,0.00,,,0.01,Wunderground v.1.15,2013-11-22 18:35:00,
2013-11-22 08:40:00,74.8,68.9,30.11,NNE,23,0.0,-999.0,82,0.00,,,0.01,Wunderground v.1.15,2013-11-22 18:40:00,
2013-11-22 08:45:00,78.5,69.9,30.10,NNE,23,2.0,-999.0,75,0.00,,,0.01,Wunderground v.1.15,2013-11-22 18:45:00,
2013-11-22 08:50:00,78.5,69.9,30.10,NNE,23,2.0,-999.0,75,0.00,,,0.01,Wunderground v.1.15,2013-11-22 18:50:00,
2013-11-22 09:00:00,79.8,71.2,30.10,NNE,17,3.0,4.0,75,0.00,,,0.01,Wunderground v.1.15,2013-11-22 19:00:00,
2013-11-22 09:05:00,78.5,69.9,30.10,NNE,23,2.0,-999.0,75,0.00,,,0.02,Wunderground v.1.15,2013-11-22 19:05:00,
2013-11-22 09:10:00,78.5,69.9,30.10,NNE,23,2.0,-999.0,75,0.00,,,0.02,Wunderground v.1.15,2013-11-22 19:10:00,
2013-11-22 09:15:00,81.0,69.4,30.10,NNE,23,3.0,-999.0,68,0.00,,,0.02,Wunderground v.1.15,2013-11-22 19:15:00,
2013-11-22 09:20:00,81.0,69.4,30.10,NNE,23,3.0,-999.0,68,0.00,,,0.02,Wunderground v.1.15,2013-11-22 19:20:00,
2013-11-22 09:25:00,81.0,69.4,30.10,NNE,23,3.0,-999.0,68,0.00,,,0.02,Wunderground v.1.15,2013-11-22 19:25:00,
2013-11-22 09:30:00,81.0,69.4,30.10,NNE,23,3.0,-999.0,68,0.00,,,0.02,Wunderground v.1.15,2013-11-22 19:30:00,
2013-11-22 09:35:00,81.0,69.4,30.10,NNE,23,3.0,-999.0,68,0.00,,,0.02,Wunderground v.1.15,2013-11-22 19:35:00,
2013-11-22 09:40:00,81.0,69.4,30.10,NNE,23,3.0,-999.0,68,0.00,,,0.02,Wunderground v.1.15,2013-11-22 19:40:00,
2013-11-22 09:45:00,83.3,70.8,30.10,NNE,23,4.0,-999.0,66,0.00,,,0.02,Wunderground v.1.15,2013-11-22 19:45:00,
2013-11-22 09:50:00,83.3,70.8,30.10,NNE,23,4.0,-999.0,66,0.00,,,0.02,Wunderground v.1.15,2013-11-22 19:50:00,
2013-11-22 09:55:00,83.3,70.8,30.10,NNE,23,4.0,-999.0,66,0.00,,,0.02,Wunderground v.1.15,2013-11-22 19:55:00,
2013-11-22 10:00:00,83.3,70.8,30.10,NNE,23,4.0,-999.0,66,0.00,,,0.02,Wunderground v.1.15,2013-11-22 20:00:00,
2013-11-22 10:05:00,83.3,70.8,30.10,NNE,23,4.0,-999.0,66,0.00,,,0.02,Wunderground v.1.15,2013-11-22 20:05:00,
2013-11-22 10:10:00,83.3,70.8,30.10,NNE,23,4.0,-999.0,66,0.00,,,0.02,Wunderground v.1.15,2013-11-22 20:10:00,
2013-11-22 10:15:00,84.6,70.1,30.09,NNE,23,6.0,-999.0,62,0.00,,,0.02,Wunderground v.1.15,2013-11-22 20:15:00,
2013-11-22 10:20:00,84.6,70.1,30.09,NNE,23,6.0,-999.0,62,0.00,,,0.02,Wunderground v.1.15,2013-11-22 20:20:00,
2013-11-22 10:25:00,84.6,70.1,30.09,NNE,23,6.0,-999.0,62,0.00,,,0.02,Wunderground v.1.15,2013-11-22 20:25:00,
2013-11-22 10:30:00,84.6,70.1,30.09,NNE,23,6.0,-999.0,62,0.00,,,0.02,Wunderground v.1.15,2013-11-22 20:30:00,
2013-11-22 10:35:00,84.6,70.1,30.09,NNE,23,6.0,-999.0,62,0.00,,,0.02,Wunderground v.1.15,2013-11-22 20:35:00,
2013-11-22 10:40:00,84.6,70.1,30.09,NNE,23,6.0,-999.0,62,0.00,,,0.02,Wunderground v.1.15,2013-11-22 20:40:00,
2013-11-22 10:45:00,85.8,70.3,30.09,NNE,23,5.0,-999.0,60,0.00,,,0.02,Wunderground v.1.15,2013-11-22 20:45:00,
2013-11-22 10:50:00,85.8,70.3,30.09,NNE,23,5.0,-999.0,60,0.00,,,0.02,Wunderground v.1.15,2013-11-22 20:50:00,
2013-11-22 10:55:00,85.8,70.3,30.09,NNE,23,5.0,-999.0,60,0.00,,,0.02,Wunderground v.1.15,2013-11-22 20:55:00,
2013-11-22 11:00:00,85.8,70.3,30.09,NNE,23,5.0,-999.0,60,0.00,,,0.02,Wunderground v.1.15,2013-11-22 21:00:00,
2013-11-22 11:05:00,85.8,70.3,30.09,NNE,23,5.0,-999.0,60,0.00,,,0.02,Wunderground v.1.15,2013-11-22 21:05:00,
2013-11-22 11:10:00,85.8,70.3,30.09,NNE,23,5.0,-999.0,60,0.00,,,0.02,Wunderground v.1.15,2013-11-22 21:10:00,
2013-11-22 11:15:00,86.5,70.5,30.08,NNE,23,6.0,-999.0,59,0.00,,,0.02,Wunderground v.1.15,2013-11-22 21:15:00,
2013-11-22 11:20:00,86.5,70.5,30.08,NNE,23,6.0,-999.0,59,0.00,,,0.02,Wunderground v.1.15,2013-11-22 21:20:00,
2013-11-22 11:25:00,86.5,70.5,30.08,NNE,23,6.0,-999.0,59,0.00,,,0.02,Wunderground v.1.15,2013-11-22 21:25:00,
2013-11-22 11:30:00,86.5,70.5,30.08,NNE,23,6.0,-999.0,59,0.00,,,0.02,Wunderground v.1.15,2013-11-22 21:30:00,
2013-11-22 11:35:00,86.5,70.5,30.08,NNE,23,6.0,-999.0,59,0.00,,,0.02,Wunderground v.1.15,2013-11-22 21:35:00,
2013-11-22 11:40:00,86.5,70.5,30.08,NNE,23,6.0,-999.0,59,0.00,,,0.02,Wunderground v.1.15,2013-11-22 21:40:00,
2013-11-22 11:45:00,87.3,71.2,30.07,NNE,23,6.0,-999.0,59,0.00,,,0.02,Wunderground v.1.15,2013-11-22 21:45:00,
2013-11-22 11:50:00,87.3,71.2,30.07,NNE,23,6.0,-999.0,59,0.00,,,0.02,Wunderground v.1.15,2013-11-22 21:50:00,
2013-11-22 11:55:00,87.3,71.2,30.07,NNE,23,6.0,-999.0,59,0.00,,,0.02,Wunderground v.1.15,2013-11-22 21:55:00,
2013-11-22 12:00:00,87.3,71.2,30.07,NNE,23,6.0,-999.0,59,0.00,,,0.02,Wunderground v.1.15,2013-11-22 22:00:00,
2013-11-22 12:05:00,87.3,71.2,30.07,NNE,23,6.0,-999.0,59,0.00,,,0.02,Wunderground v.1.15,2013-11-22 22:05:00,
2013-11-22 12:10:00,87.3,71.2,30.07,NNE,23,6.0,-999.0,59,0.00,,,0.02,Wunderground v.1.15,2013-11-22 22:10:00,
2013-11-22 12:15:00,87.8,70.1,30.05,NNE,23,5.0,-999.0,56,0.00,,,0.02,Wunderground v.1.15,2013-11-22 22:15:00,
2013-11-22 12:20:00,87.8,70.1,30.05,NNE,23,5.0,-999.0,56,0.00,,,0.02,Wunderground v.1.15,2013-11-22 22:20:00,
2013-11-22 12:25:00,87.8,70.1,30.05,NNE,23,5.0,-999.0,56,0.00,,,0.02,Wunderground v.1.15,2013-11-22 22:25:00,
2013-11-22 12:30:00,87.8,70.1,30.05,NNE,23,5.0,-999.0,56,0.00,,,0.02,Wunderground v.1.15,2013-11-22 22:30:00,
2013-11-22 12:35:00,87.8,70.1,30.05,NNE,23,5.0,-999.0,56,0.00,,,0.02,Wunderground v.1.15,2013-11-22 22:35:00,
2013-11-22 12:40:00,87.8,70.1,30.05,NNE,23,5.0,-999.0,56,0.00,,,0.02,Wunderground v.1.15,2013-11-22 22:40:00,
2013-11-22 12:45:00,87.8,70.1,30.03,NE,45,6.0,-999.0,56,0.00,,,0.02,Wunderground v.1.15,2013-11-22 22:45:00,
2013-11-22 12:50:00,87.8,70.1,30.03,NE,45,6.0,-999.0,56,0.00,,,0.02,Wunderground v.1.15,2013-11-22 22:50:00,
2013-11-22 12:55:00,87.8,70.1,30.03,NE,45,6.0,-999.0,56,0.00,,,0.02,Wunderground v.1.15,2013-11-22 22:55:00,
2013-11-22 13:00:00,87.8,70.1,30.03,NE,45,6.0,-999.0,56,0.00,,,0.02,Wunderground v.1.15,2013-11-22 23:00:00,
2013-11-22 13:05:00,87.8,70.1,30.03,NE,45,6.0,-999.0,56,0.00,,,0.02,Wunderground v.1.15,2013-11-22 23:05:00,
2013-11-22 13:10:00,87.8,70.1,30.03,NE,45,6.0,-999.0,56,0.00,,,0.02,Wunderground v.1.15,2013-11-22 23:10:00,
2013-11-22 13:15:00,87.0,71.4,30.02,NE,45,8.0,-999.0,60,0.00,,,0.02,Wunderground v.1.15,2013-11-22 23:15:00,
2013-11-22 13:20:00,87.0,71.4,30.02,NE,45,8.0,-999.0,60,0.00,,,0.02,Wunderground v.1.15,2013-11-22 23:20:00,
2013-11-22 13:30:00,87.0,71.4,30.02,NE,45,8.0,-999.0,60,0.00,,,0.02,Wunderground v.1.15,2013-11-22 23:30:00,
2013-11-22 13:35:00,87.0,71.4,30.02,NE,45,8.0,-999.0,60,0.00,,,0.02,Wunderground v.1.15,2013-11-22 23:35:00,
2013-11-22 13:40:00,87.0,71.4,30.02,NE,45,8.0,-999.0,60,0.00,,,0.02,Wunderground v.1.15,2013-11-22 23:40:00,
2013-11-22 13:45:00,86.3,71.7,30.02,NE,45,8.0,-999.0,62,0.00,,,0.02,Wunderground v.1.15,2013-11-22 23:45:00,
2013-11-22 13:50:00,86.3,71.7,30.02,NE,45,8.0,-999.0,62,0.00,,,0.02,Wunderground v.1.15,2013-11-22 23:50:00,
2013-11-22 13:55:00,86.3,71.7,30.02,NE,45,8.0,-999.0,62,0.00,,,0.02,Wunderground v.1.15,2013-11-22 23:55:00,
2013-11-22 14:00:00,86.3,71.7,30.02,NE,45,8.0,-999.0,62,0.00,,,0.02,Wunderground v.1.15,2013-11-23 00:00:00,
2013-11-22 14:05:00,86.3,71.7,30.02,NE,45,8.0,-999.0,62,0.00,,,0.02,Wunderground v.1.15,2013-11-23 00:05:00,
2013-11-22 14:10:00,86.3,71.7,30.02,NE,45,8.0,-999.0,62,0.00,,,0.02,Wunderground v.1.15,2013-11-23 00:10:00,
2013-11-22 14:15:00,85.5,71.5,30.02,NE,45,8.0,-999.0,63,0.00,,,0.02,Wunderground v.1.15,2013-11-23 00:15:00,
2013-11-22 14:20:00,85.5,71.5,30.02,NE,45,8.0,-999.0,63,0.00,,,0.02,Wunderground v.1.15,2013-11-23 00:20:00,
2013-11-22 14:25:00,85.5,71.5,30.02,NE,45,8.0,-999.0,63,0.00,,,0.02,Wunderground v.1.15,2013-11-23 00:25:00,
2013-11-22 14:30:00,85.5,71.5,30.02,NE,45,8.0,-999.0,63,0.00,,,0.02,Wunderground v.1.15,2013-11-23 00:30:00,
2013-11-22 14:35:00,85.5,71.5,30.02,NE,45,8.0,-999.0,63,0.00,,,0.02,Wunderground v.1.15,2013-11-23 00:35:00,
2013-11-22 14:40:00,85.5,71.5,30.02,NE,45,8.0,-999.0,63,0.00,,,0.02,Wunderground v.1.15,2013-11-23 00:40:00,
2013-11-22 14:45:00,85.3,70.8,30.02,NE,45,7.0,-999.0,62,0.00,,,0.02,Wunderground v.1.15,2013-11-23 00:45:00,
2013-11-22 14:50:00,85.3,70.8,30.02,NE,45,7.0,-999.0,62,0.00,,,0.02,Wunderground v.1.15,2013-11-23 00:50:00,
2013-11-22 14:55:00,85.3,70.8,30.02,NE,45,7.0,-999.0,62,0.00,,,0.02,Wunderground v.1.15,2013-11-23 00:55:00,
2013-11-22 15:00:00,85.3,70.8,30.02,NE,45,7.0,-999.0,62,0.00,,,0.02,Wunderground v.1.15,2013-11-23 01:00:00,
2013-11-22 15:05:00,85.3,70.8,30.02,NE,45,7.0,-999.0,62,0.00,,,0.02,Wunderground v.1.15,2013-11-23 01:05:00,
2013-11-22 15:10:00,85.3,70.8,30.02,NE,45,7.0,-999.0,62,0.00,,,0.02,Wunderground v.1.15,2013-11-23 01:10:00,
2013-11-22 15:15:00,85.0,70.5,30.02,NE,45,7.0,-999.0,62,0.00,,,0.02,Wunderground v.1.15,2013-11-23 01:15:00,
2013-11-22 15:20:00,85.0,70.5,30.02,NE,45,7.0,-999.0,62,0.00,,,0.02,Wunderground v.1.15,2013-11-23 01:20:00,
2013-11-22 15:25:00,85.0,70.5,30.02,NE,45,7.0,-999.0,62,0.00,,,0.02,Wunderground v.1.15,2013-11-23 01:25:00,
2013-11-22 15:30:00,85.0,70.5,30.02,NE,45,7.0,-999.0,62,0.00,,,0.02,Wunderground v.1.15,2013-11-23 01:30:00,
2013-11-22 15:35:00,85.0,70.5,30.02,NE,45,7.0,-999.0,62,0.00,,,0.02,Wunderground v.1.15,2013-11-23 01:35:00,
2013-11-22 15:40:00,85.0,70.5,30.02,NE,45,7.0,-999.0,62,0.00,,,0.02,Wunderground v.1.15,2013-11-23 01:40:00,
2013-11-22 15:45:00,84.7,70.7,30.02,NE,45,7.0,-999.0,63,0.00,,,0.02,Wunderground v.1.15,2013-11-23 01:45:00,
2013-11-22 15:50:00,84.7,70.7,30.02,NE,45,7.0,-999.0,63,0.00,,,0.02,Wunderground v.1.15,2013-11-23 01:50:00,
2013-11-22 15:55:00,84.7,70.7,30.02,NE,45,7.0,-999.0,63,0.00,,,0.02,Wunderground v.1.15,2013-11-23 01:55:00,
2013-11-22 16:00:00,84.7,70.7,30.02,NE,45,7.0,-999.0,63,0.00,,,0.02,Wunderground v.1.15,2013-11-23 02:00:00,
2013-11-22 16:05:00,84.7,70.7,30.02,NE,45,7.0,-999.0,63,0.00,,,0.02,Wunderground v.1.15,2013-11-23 02:05:00,
2013-11-22 16:10:00,84.7,70.7,30.02,NE,45,7.0,-999.0,63,0.00,,,0.02,Wunderground v.1.15,2013-11-23 02:10:00,
2013-11-22 16:15:00,83.7,71.1,30.02,NNE,23,6.0,-999.0,66,0.00,,,0.02,Wunderground v.1.15,2013-11-23 02:15:00,
2013-11-22 16:20:00,83.7,71.1,30.02,NNE,23,6.0,-999.0,66,0.00,,,0.02,Wunderground v.1.15,2013-11-23 02:20:00,
2013-11-22 16:25:00,83.7,71.1,30.02,NNE,23,6.0,-999.0,66,0.00,,,0.02,Wunderground v.1.15,2013-11-23 02:25:00,
2013-11-22 16:30:00,83.7,71.1,30.02,NNE,23,6.0,-999.0,66,0.00,,,0.02,Wunderground v.1.15,2013-11-23 02:30:00,
2013-11-22 16:35:00,83.7,71.1,30.02,NNE,23,6.0,-999.0,66,0.00,,,0.02,Wunderground v.1.15,2013-11-23 02:35:00,
2013-11-22 16:40:00,83.7,71.1,30.02,NNE,23,6.0,-999.0,66,0.00,,,0.02,Wunderground v.1.15,2013-11-23 02:40:00,
2013-11-22 16:45:00,81.8,70.6,30.03,NE,45,6.0,-999.0,69,0.01,,,0.02,Wunderground v.1.15,2013-11-23 02:45:00,
2013-11-22 16:50:00,81.8,70.6,30.03,NE,45,6.0,-999.0,69,0.01,,,0.02,Wunderground v.1.15,2013-11-23 02:50:00,
2013-11-22 16:55:00,81.8,70.6,30.03,NE,45,6.0,-999.0,69,0.01,,,0.02,Wunderground v.1.15,2013-11-23 02:55:00,
2013-11-22 17:00:00,81.8,70.6,30.03,NE,45,6.0,-999.0,69,0.01,,,0.02,Wunderground v.1.15,2013-11-23 03:00:00,
2013-11-22 17:05:00,81.8,70.6,30.03,NE,45,6.0,-999.0,69,0.01,,,0.02,Wunderground v.1.15,2013-11-23 03:05:00,
2013-11-22 17:10:00,81.8,70.6,30.03,NE,45,6.0,-999.0,69,0.01,,,0.02,Wunderground v.1.15,2013-11-23 03:10:00,
2013-11-22 17:15:00,79.6,69.8,30.03,NE,45,5.0,-999.0,72,0.01,,,0.02,Wunderground v.1.15,2013-11-23 03:15:00,
2013-11-22 17:20:00,79.6,69.8,30.03,NE,45,5.0,-999.0,72,0.01,,,0.02,Wunderground v.1.15,2013-11-23 03:20:00,
2013-11-22 17:25:00,79.6,69.8,30.03,NE,45,5.0,-999.0,72,0.01,,,0.02,Wunderground v.1.15,2013-11-23 03:25:00,
2013-11-22 17:30:00,79.6,69.8,30.03,NE,45,5.0,-999.0,72,0.01,,,0.02,Wunderground v.1.15,2013-11-23 03:30:00,
2013-11-22 17:35:00,79.6,69.8,30.03,NE,45,5.0,-999.0,72,0.01,,,0.02,Wunderground v.1.15,2013-11-23 03:35:00,
2013-11-22 17:40:00,79.6,69.8,30.03,NE,45,5.0,-999.0,72,0.01,,,0.02,Wunderground v.1.15,2013-11-23 03:40:00,
2013-11-22 17:45:00,78.0,70.2,30.04,NE,45,4.0,-999.0,77,0.00,,,0.02,Wunderground v.1.15,2013-11-23 03:45:00,
2013-11-22 17:50:00,78.0,70.2,30.04,NE,45,4.0,-999.0,77,0.00,,,0.02,Wunderground v.1.15,2013-11-23 03:50:00,
2013-11-22 17:55:00,78.0,70.2,30.04,NE,45,4.0,-999.0,77,0.00,,,0.02,Wunderground v.1.15,2013-11-23 03:55:00,
2013-11-22 18:00:00,78.0,70.2,30.04,NE,45,4.0,-999.0,77,0.00,,,0.02,Wunderground v.1.15,2013-11-23 04:00:00,
2013-11-22 18:05:00,78.0,70.2,30.04,NE,45,4.0,-999.0,77,0.00,,,0.02,Wunderground v.1.15,2013-11-23 04:05:00,
2013-11-22 18:10:00,78.0,70.2,30.04,NE,45,4.0,-999.0,77,0.00,,,0.02,Wunderground v.1.15,2013-11-23 04:10:00,
2013-11-22 18:15:00,77.0,69.2,30.05,NE,45,4.0,-999.0,77,0.00,,,0.02,Wunderground v.1.15,2013-11-23 04:15:00,
2013-11-22 18:20:00,77.0,69.2,30.05,NE,45,4.0,-999.0,77,0.00,,,0.02,Wunderground v.1.15,2013-11-23 04:20:00,
2013-11-22 18:25:00,77.0,69.2,30.05,NE,45,4.0,-999.0,77,0.00,,,0.02,Wunderground v.1.15,2013-11-23 04:25:00,
2013-11-22 18:30:00,77.0,69.2,30.05,NE,45,4.0,-999.0,77,0.00,,,0.02,Wunderground v.1.15,2013-11-23 04:30:00,
2013-11-22 18:35:00,77.0,69.2,30.05,NE,45,4.0,-999.0,77,0.00,,,0.02,Wunderground v.1.15,2013-11-23 04:35:00,
2013-11-22 18:40:00,77.0,69.2,30.05,NE,45,4.0,-999.0,77,0.00,,,0.02,Wunderground v.1.15,2013-11-23 04:40:00,
2013-11-22 18:45:00,76.4,69.4,30.06,NE,45,5.0,-999.0,79,0.00,,,0.02,Wunderground v.1.15,2013-11-23 04:45:00,
2013-11-22 18:50:00,76.4,69.4,30.06,NE,45,5.0,-999.0,79,0.00,,,0.02,Wunderground v.1.15,2013-11-23 04:50:00,
2013-11-22 18:55:00,76.4,69.4,30.06,NE,45,5.0,-999.0,79,0.00,,,0.02,Wunderground v.1.15,2013-11-23 04:55:00,
2013-11-22 19:00:00,76.4,69.4,30.06,NE,45,5.0,-999.0,79,0.00,,,0.02,Wunderground v.1.15,2013-11-23 05:00:00,
2013-11-22 19:05:00,76.4,69.4,30.06,NE,45,5.0,-999.0,79,0.00,,,0.02,Wunderground v.1.15,2013-11-23 05:05:00,
2013-11-22 19:10:00,76.4,69.4,30.06,NE,45,5.0,-999.0,79,0.00,,,0.02,Wunderground v.1.15,2013-11-23 05:10:00,
2013-11-22 19:15:00,75.9,68.9,30.06,NE,45,4.0,-999.0,79,0.00,,,0.02,Wunderground v.1.15,2013-11-23 05:15:00,
2013-11-22 19:20:00,75.9,68.9,30.06,NE,45,4.0,-999.0,79,0.00,,,0.02,Wunderground v.1.15,2013-11-23 05:20:00,
2013-11-22 19:25:00,75.9,68.9,30.06,NE,45,4.0,-999.0,79,0.00,,,0.02,Wunderground v.1.15,2013-11-23 05:25:00,
2013-11-22 19:30:00,75.9,68.9,30.06,NE,45,4.0,-999.0,79,0.00,,,0.02,Wunderground v.1.15,2013-11-23 05:30:00,
2013-11-22 19:35:00,75.9,68.9,30.06,NE,45,4.0,-999.0,79,0.00,,,0.02,Wunderground v.1.15,2013-11-23 05:35:00,
2013-11-22 19:40:00,75.9,68.9,30.06,NE,45,4.0,-999.0,79,0.00,,,0.02,Wunderground v.1.15,2013-11-23 05:40:00,
2013-11-22 19:45:00,75.5,69.3,30.07,NE,45,3.0,-999.0,81,0.00,,,0.02,Wunderground v.1.15,2013-11-23 05:45:00,
2013-11-22 19:50:00,75.5,69.3,30.07,NE,45,3.0,-999.0,81,0.00,,,0.02,Wunderground v.1.15,2013-11-23 05:50:00,
2013-11-22 19:55:00,75.5,69.3,30.07,NE,45,3.0,-999.0,81,0.00,,,0.02,Wunderground v.1.15,2013-11-23 05:55:00,
2013-11-22 20:00:00,75.5,69.3,30.07,NE,45,3.0,-999.0,81,0.00,,,0.02,Wunderground v.1.15,2013-11-23 06:00:00,
2013-11-22 20:05:00,75.5,69.3,30.07,NE,45,3.0,-999.0,81,0.00,,,0.02,Wunderground v.1.15,2013-11-23 06:05:00,
2013-11-22 20:10:00,75.5,69.3,30.07,NE,45,3.0,-999.0,81,0.00,,,0.02,Wunderground v.1.15,2013-11-23 06:10:00,
2013-11-22 20:15:00,74.7,68.5,30.07,NE,45,3.0,-999.0,81,0.00,,,0.02,Wunderground v.1.15,2013-11-23 06:15:00,
2013-11-22 20:20:00,74.7,68.5,30.07,NE,45,3.0,-999.0,81,0.00,,,0.02,Wunderground v.1.15,2013-11-23 06:20:00,
2013-11-22 20:25:00,74.7,68.5,30.07,NE,45,3.0,-999.0,81,0.00,,,0.02,Wunderground v.1.15,2013-11-23 06:25:00,
2013-11-22 20:30:00,74.7,68.5,30.07,NE,45,3.0,-999.0,81,0.00,,,0.02,Wunderground v.1.15,2013-11-23 06:30:00,
2013-11-22 20:35:00,74.7,68.5,30.07,NE,45,3.0,-999.0,81,0.00,,,0.02,Wunderground v.1.15,2013-11-23 06:35:00,
2013-11-22 20:40:00,74.7,68.5,30.07,NE,45,3.0,-999.0,81,0.00,,,0.02,Wunderground v.1.15,2013-11-23 06:40:00,
2013-11-22 20:45:00,74.3,68.4,30.08,NE,45,2.0,-999.0,82,0.00,,,0.02,Wunderground v.1.15,2013-11-23 06:45:00,
2013-11-22 20:50:00,74.3,68.4,30.08,NE,45,2.0,-999.0,82,0.00,,,0.02,Wunderground v.1.15,2013-11-23 06:50:00,
2013-11-22 20:55:00,74.3,68.4,30.08,NE,45,2.0,-999.0,82,0.00,,,0.02,Wunderground v.1.15,2013-11-23 06:55:00,
2013-11-22 21:00:00,74.3,68.4,30.08,NE,45,2.0,-999.0,82,0.00,,,0.02,Wunderground v.1.15,2013-11-23 07:00:00,
2013-11-22 21:05:00,74.3,68.4,30.08,NE,45,2.0,-999.0,82,0.00,,,0.02,Wunderground v.1.15,2013-11-23 07:05:00,
2013-11-22 21:10:00,74.3,68.4,30.08,NE,45,2.0,-999.0,82,0.00,,,0.02,Wunderground v.1.15,2013-11-23 07:10:00,
2013-11-22 21:15:00,74.1,69.3,30.08,NE,45,2.0,-999.0,85,0.00,,,0.02,Wunderground v.1.15,2013-11-23 07:15:00,
2013-11-22 21:20:00,74.1,69.3,30.08,NE,45,2.0,-999.0,85,0.00,,,0.02,Wunderground v.1.15,2013-11-23 07:20:00,
2013-11-22 21:25:00,74.1,69.3,30.08,NE,45,2.0,-999.0,85,0.00,,,0.02,Wunderground v.1.15,2013-11-23 07:25:00,
2013-11-22 21:30:00,74.1,69.3,30.08,NE,45,2.0,-999.0,85,0.00,,,0.02,Wunderground v.1.15,2013-11-23 07:30:00,
2013-11-22 21:35:00,74.1,69.3,30.08,NE,45,2.0,-999.0,85,0.00,,,0.02,Wunderground v.1.15,2013-11-23 07:35:00,
2013-11-22 21:40:00,74.1,69.3,30.08,NE,45,2.0,-999.0,85,0.00,,,0.02,Wunderground v.1.15,2013-11-23 07:40:00,
2013-11-22 21:45:00,73.6,68.8,30.08,NE,45,2.0,-999.0,85,0.00,,,0.02,Wunderground v.1.15,2013-11-23 07:45:00,
2013-11-22 21:50:00,73.6,68.8,30.08,NE,45,2.0,-999.0,85,0.00,,,0.02,Wunderground v.1.15,2013-11-23 07:50:00,
2013-11-22 22:00:00,73.6,68.8,30.08,NE,45,2.0,-999.0,85,0.00,,,0.02,Wunderground v.1.15,2013-11-23 08:00:00,
2013-11-22 22:03:00,73.6,68.8,30.08,NE,45,2.0,-999.0,85,0.00,,,0.02,Wunderground v.1.15,2013-11-23 08:03:00,
2013-11-22 22:05:00,73.6,68.8,30.08,NE,45,2.0,-999.0,85,0.00,,,0.02,Wunderground v.1.15,2013-11-23 08:05:00,
2013-11-22 22:10:00,73.6,68.8,30.08,NE,45,2.0,-999.0,85,0.00,,,0.02,Wunderground v.1.15,2013-11-23 08:10:00,
2013-11-22 22:15:00,73.3,68.5,30.09,NE,45,3.0,-999.0,85,0.00,,,0.02,Wunderground v.1.15,2013-11-23 08:15:00,
2013-11-22 22:20:00,73.3,68.5,30.09,NE,45,3.0,-999.0,85,0.00,,,0.02,Wunderground v.1.15,2013-11-23 08:20:00,
2013-11-22 22:25:00,73.3,68.5,30.09,NE,45,3.0,-999.0,85,0.00,,,0.02,Wunderground v.1.15,2013-11-23 08:25:00,
2013-11-22 22:30:00,73.3,68.5,30.09,NE,45,3.0,-999.0,85,0.00,,,0.02,Wunderground v.1.15,2013-11-23 08:30:00,
2013-11-22 22:35:00,73.3,68.5,30.09,NE,45,3.0,-999.0,85,0.00,,,0.02,Wunderground v.1.15,2013-11-23 08:35:00,
2013-11-22 22:40:00,73.3,68.5,30.09,NE,45,3.0,-999.0,85,0.00,,,0.02,Wunderground v.1.15,2013-11-23 08:40:00,
2013-11-22 22:45:00,73.0,68.2,30.08,NE,45,3.0,-999.0,85,0.00,,,0.02,Wunderground v.1.15,2013-11-23 08:45:00,
2013-11-22 22:50:00,73.0,68.2,30.08,NE,45,3.0,-999.0,85,0.00,,,0.02,Wunderground v.1.15,2013-11-23 08:50:00,
2013-11-22 22:55:00,73.0,68.2,30.08,NE,45,3.0,-999.0,85,0.00,,,0.02,Wunderground v.1.15,2013-11-23 08:55:00,
2013-11-22 23:00:00,73.0,68.2,30.08,NE,45,3.0,-999.0,85,0.00,,,0.02,Wunderground v.1.15,2013-11-23 09:00:00,
2013-11-22 23:05:00,73.0,68.2,30.08,NE,45,3.0,-999.0,85,0.00,,,0.02,Wunderground v.1.15,2013-11-23 09:05:00,
2013-11-22 23:10:00,73.0,68.2,30.08,NE,45,3.0,-999.0,85,0.00,,,0.02,Wunderground v.1.15,2013-11-23 09:10:00,
2013-11-22 23:15:00,72.7,67.9,30.08,NE,45,2.0,-999.0,85,0.00,,,0.02,Wunderground v.1.15,2013-11-23 09:15:00,
2013-11-22 23:20:00,72.7,67.9,30.08,NE,45,2.0,-999.0,85,0.00,,,0.02,Wunderground v.1.15,2013-11-23 09:20:00,
2013-11-22 23:25:00,72.7,67.9,30.08,NE,45,2.0,-999.0,85,0.00,,,0.02,Wunderground v.1.15,2013-11-23 09:25:00,
2013-11-22 23:30:00,72.7,67.9,30.08,NE,45,2.0,-999.0,85,0.00,,,0.02,Wunderground v.1.15,2013-11-23 09:30:00,
2013-11-22 23:35:00,72.7,67.9,30.08,NE,45,2.0,-999.0,85,0.00,,,0.02,Wunderground v.1.15,2013-11-23 09:35:00,
2013-11-22 23:40:00,72.7,67.9,30.08,NE,45,2.0,-999.0,85,0.00,,,0.02,Wunderground v.1.15,2013-11-23 09:40:00,
2013-11-22 23:45:00,72.7,67.9,30.08,NE,45,2.0,-999.0,85,0.00,,,0.02,Wunderground v.1.15,2013-11-23 09:45:00,
2013-11-22 23:50:00,72.7,67.9,30.08,NE,45,2.0,-999.0,85,0.00,,,0.02,Wunderground v.1.15,2013-11-23 09:50:00,
2013-11-22 23:55:00,72.7,67.9,30.08,NE,45,2.0,-999.0,85,0.00,,,0.02,Wunderground v.1.15,2013-11-23 09:55:00,